Home   Weather   Mamoutzou   Past weeks

Flag for Mayotte Past Weather in Mamoutzou, Mayotte — Yesterday and Last 2 Weeks

Now
86 °F

Scattered clouds.


Feels Like: 93 °F
Forecast: 78 / 84 °F
Wind: 8 mph from North

Location: Dzaoudzi / Pamanzi Mayotte

Current Time: Dec 7, 2016 at 3:43:23 pm

Latest Report: Dec 7, 2016 at 3:00 pm


Visibility: N/A

Pressure: 29.89 "Hg

Humidity: 66%

Dew Point: 73 °F

Location of MamoutzouLocation

Past Weather in Mamoutzou — Graph

°F

Mamoutzou Temperature Yesterday

Maximum temperature yesterday: 88 °F (at 10:00 am)
Minimum temperature yesterday: 77 °F (at 6:04 am)
Average temperature yesterday: 81 °F

High & Low Weather Summary for the Past Weeks

 TemperatureHumidityPressure
High90 °F (Nov 27, 11:00 am)89% (Nov 25, 6:05 pm)30.01 "Hg (Nov 25, 6:05 pm)
Low75 °F (Nov 28, 4:30 am)41% (Dec 3, 12:30 pm)29.83 "Hg (Nov 25, 3:30 pm)
Average82 °F72%29.92 "Hg
* Reported Nov 22 2:00 pm — Dec 7 2:00 pm, Mamoutzou, Weather by CustomWeather, © 2016

Note: Actual official high and low records may vary slightly from our data, if they occured in-between our weather recording intervals... More about our weather records

Advertising

Mamoutzou Weather History for the Previous 24 Hours

Scroll right to see more
 ConditionsComfort  
Time TempWeatherWind HumidityBarometerVisibility
2:00 pm
Wed, Dec 7
88 °FPassing clouds.8 mph59%29.92 "HgN/A
1:30 pm90 °FPassing clouds.8 mph59%29.92 "HgN/A
1:00 pm88 °FPassing clouds.8 mph62%29.95 "HgN/A
12:30 pm90 °FPassing clouds.6 mph59%29.95 "HgN/A
12:00 pm88 °FScattered clouds.8 mph62%29.95 "HgN/A
11:30 am86 °FScattered clouds.9 mph62%29.95 "HgN/A
11:04 am88 °FScattered clouds.7 mph55%29.98 "HgN/A
10:30 am88 °FScattered clouds.9 mph59%29.98 "HgN/A
10:00 am86 °FScattered clouds.7 mph62%29.98 "HgN/A
9:30 am84 °FScattered clouds.9 mph62%29.98 "HgN/A
9:00 am84 °FScattered clouds.10 mph66%29.98 "HgN/A
8:30 am82 °FScattered clouds.1 mph74%29.98 "HgN/A
8:04 am81 °FScattered clouds.5 mph79%29.98 "HgN/A
7:30 am81 °FScattered clouds.2 mph79%29.98 "HgN/A
7:00 am81 °FPassing clouds.6 mph79%29.95 "HgN/A
6:30 am79 °FPassing clouds.2 mph84%29.95 "HgN/A
6:00 am77 °FPassing clouds.2 mph83%29.95 "HgN/A
5:30 am77 °FPassing clouds.3 mph83%29.92 "HgN/A
5:00 am77 °FPassing clouds.3 mph83%29.92 "HgN/A
3:30 am77 °FWarm.5 mph89%29.92 "HgN/A
3:00 am77 °FWarm.3 mph89%29.92 "HgN/A
2:30 am77 °FWarm.3 mph83%29.92 "HgN/A
2:00 am79 °FWarm.3 mph84%29.92 "HgN/A
1:30 am79 °FPassing clouds.5 mph84%29.92 "HgN/A
1:00 am79 °FWarm.6 mph84%29.92 "HgN/A
12:30 am79 °FPassing clouds.6 mph84%29.92 "HgN/A
12:00 am79 °FPassing clouds.5 mph84%29.92 "HgN/A
11:30 pm
Tue, Dec 6
77 °FPassing clouds.2 mph89%29.95 "HgN/A
11:00 pm77 °FWarm.2 mph89%29.95 "HgN/A
10:30 pm79 °FWarm.3 mph84%29.95 "HgN/A
10:00 pm79 °FWarm.2 mph84%29.95 "HgN/A
8:30 pm79 °FPassing clouds.5 mph79%29.92 "HgN/A
8:00 pm81 °FPassing clouds.2 mph74%29.92 "HgN/A
7:30 pm81 °FWarm.3 mph74%29.92 "HgN/A
7:00 pm81 °FWarm.6 mph74%29.92 "HgN/A
6:30 pm82 °FWarm.6 mph70%29.89 "HgN/A
6:00 pm82 °FScattered clouds.3 mph70%29.89 "HgN/A
5:30 pm82 °FScattered clouds.5 mph70%29.89 "HgN/A
5:00 pm82 °FScattered clouds.7 mph70%29.86 "HgN/A
4:30 pm82 °FScattered clouds.9 mph70%29.86 "HgN/A
4:00 pm84 °FScattered clouds.10 mph70%29.86 "HgN/A
3:30 pm84 °FBroken clouds.5 mph70%29.86 "HgN/A
3:00 pm82 °FBroken clouds.3 mph74%29.86 "HgN/A
Weather by CustomWeather, © 2016

See weather overviewHow to use our weather pages